FW0697 Weather Reports


Display with metric or nautical units.
time (UTC)temp
F
wind
direction
speed
MPH
gust
MPH
rain 1hr
in
rain 24hr
in
rain mn
in
humidity
%
barometer
mb
20260503231504 66 214 4.0 13.0 0.00 0.00 0.00 43 1011.8
20260503231005 66 216 4.0 13.0 0.00 0.00 0.00 43 1011.8
20260503230505 66 203 3.0 13.0 0.00 0.00 0.00 42 1011.9
20260503230005 67 213 4.0 13.0 0.00 0.00 0.00 42 1012.1
20260503225504 67 220 5.0 13.0 0.00 0.00 0.00 41 1012.3
20260503225005 67 221 6.0 14.0 0.00 0.00 0.00 41 1012.4
20260503224005 66 216 4.0 13.0 0.00 0.00 0.00 41 1012.6
20260503223504 66 212 4.0 15.0 0.00 0.00 0.00 40 1012.7
20260503223004 67 215 3.0 15.0 0.00 0.00 0.00 40 1012.8
20260503222504 67 226 4.0 14.0 0.00 0.00 0.00 40 1012.8
20260503222005 67 226 6.0 14.0 0.00 0.00 0.00 39 1012.8
20260503221504 67 225 7.0 17.0 0.00 0.00 0.00 39 1013.1
20260503221004 67 224 9.0 17.0 0.00 0.00 0.00 39 1013.1
20260503220504 67 221 9.0 17.0 0.00 0.00 0.00 38 1012.9
20260503220004 67 217 8.0 17.0 0.00 0.00 0.00 38 1013.0
20260503215504 68 213 7.0 15.0 0.00 0.00 0.00 38 1012.9
20260503215005 68 208 5.0 13.0 0.00 0.00 0.00 38 1013.3
20260503214504 68 207 4.0 10.0 0.00 0.00 0.00 37 1013.7
20260503213505 68 221 6.0 15.0 0.00 0.00 0.00 37 1013.5
20260503213004 67 218 6.0 16.0 0.00 0.00 0.00 37 1013.8
20260503212504 67 214 4.0 16.0 0.00 0.00 0.00 36 1013.9
20260503212005 67 217 5.0 17.0 0.00 0.00 0.00 37 1013.9
20260503211504 67 223 8.0 18.0 0.00 0.00 0.00 36 1014.2
20260503210504 67 223 7.0 19.0 0.00 0.00 0.00 36 1013.8
20260503210005 67 225 9.0 19.0 0.00 0.00 0.00 36 1013.7
20260503205504 67 224 9.0 18.0 0.00 0.00 0.00 35 1013.7
20260503204504 67 220 6.0 20.0 0.00 0.00 0.00 35 1014.1
20260503203504 67 223 8.0 18.0 0.00 0.00 0.00 36 1014.3
20260503203005 67 228 6.0 17.0 0.00 0.00 0.00 35 1014.2
20260503202504 67 225 2.0 17.0 0.00 0.00 0.00 36 1014.4
20260503202005 67 200 2.0 11.0 0.00 0.00 0.00 36 1014.5
20260503201503 67 207 3.0 11.0 0.00 0.00 0.00 36 1014.6
20260503201004 66 215 4.0 16.0 0.00 0.00 0.00 37 1014.6
20260503194504 66 193 3.0 15.0 0.00 0.00 0.00 37 1015.1
20260503194005 66 206 5.0 11.0 0.00 0.00 0.00 36 1015.4
20260503193504 66 216 4.0 12.0 0.00 0.00 0.00 35 1015.5
20260503193005 66 218 5.0 14.0 0.00 0.00 0.00 36 1015.7
20260503192504 66 219 6.0 14.0 0.00 0.00 0.00 36 1015.7
20260503191503 66 228 1.0 12.0 0.00 0.00 0.00 37 1015.9
20260503191005 65 214 0.0 5.0 0.00 0.00 0.00 36 1015.9
20260503190504 65 191 1.0 6.0 0.00 0.00 0.00 36 1016.1
20260503190005 65 221 2.0 10.0 0.00 0.00 0.00 37 1016.2
20260503184504 64 214 4.0 13.0 0.00 0.00 0.00 36 1016.5
20260503184004 65 212 2.0 10.0 0.00 0.00 0.00 36 1016.4
20260503183504 64 217 4.0 13.0 0.00 0.00 0.00 36 1016.5
20260503183005 64 213 4.0 15.0 0.00 0.00 0.00 37 1016.7
20260503182005 64 222 2.0 12.0 0.00 0.00 0.00 37 1016.9
20260503181505 64 214 4.0 13.0 0.00 0.00 0.00 36 1016.9
20260503181004 64 219 4.0 13.0 0.00 0.00 0.00 36 1016.7
20260503180005 63 206 3.0 12.0 0.00 0.00 0.00 36 1017.1
20260503174504 63 203 2.0 13.0 0.00 0.00 0.00 36 1017.5
20260503174004 63 217 5.0 13.0 0.00 0.00 0.00 36 1017.4
20260503173504 63 222 5.0 16.0 0.00 0.00 0.00 37 1017.6
20260503173004 63 222 4.0 16.0 0.00 0.00 0.00 37 1017.5
20260503171004 63 224 6.0 15.0 0.00 0.00 0.00 38 1017.9
20260503170504 62 221 5.0 12.0 0.00 0.00 0.00 39 1018.1
20260503151004 58 215 3.0 10.0 0.00 0.00 0.00 44 1019.4
20260503131005 49 0 0.0 0.0 0.00 0.00 0.00 67 1019.4
20260503130504 49 0 0.0 0.0 0.00 0.00 0.00 68 1019.5
20260503110505 40 0 0.0 0.0 0.00 0.00 0.00 82 1018.8
20260503081005 42 0 0.0 0.0 0.00 0.00 0.00 77 1018.1
20260503080504 42 0 0.0 0.0 0.00 0.00 0.00 77 1018.1
20260503072505 43 0 0.0 0.0 0.00 0.00 0.00 74 1017.9
20260503072006 43 0 0.0 0.0 0.00 0.00 0.00 73 1017.9
20260503071505 43 0 0.0 0.0 0.00 0.00 0.00 73 1017.9
20260503071005 44 0 0.0 0.0 0.00 0.00 0.00 72 1018.0
20260503070505 44 0 0.0 0.0 0.00 0.00 0.00 72 1017.9
20260503055006 47 0 0.0 0.0 0.00 0.00 0.00 64 1018.1
20260503054505 47 0 0.0 0.0 0.00 0.00 0.00 64 1018.1
20260503054005 47 0 0.0 0.0 0.00 0.00 0.00 63 1018.1
20260503053505 47 0 0.0 0.0 0.00 0.00 0.00 62 1018.2
20260503053005 48 0 0.0 0.0 0.00 0.00 0.00 61 1018.1
20260503052504 48 0 0.0 0.0 0.00 0.00 0.00 61 1018.1
20260503052005 48 0 0.0 0.0 0.00 0.00 0.00 60 1018.1
20260503051505 48 0 0.0 0.0 0.00 0.00 0.00 59 1018.2
20260503051005 48 0 0.0 0.0 0.00 0.00 0.00 59 1018.1
20260503050006 49 0 0.0 0.0 0.00 0.00 0.00 57 1018.1
20260503045505 49 0 0.0 0.0 0.00 0.00 0.00 57 1018.1
20260503045006 49 0 0.0 0.0 0.00 0.00 0.00 57 1018.1
20260503044505 49 0 0.0 0.0 0.00 0.00 0.00 56 1018.1
20260503044006 49 0 0.0 0.0 0.00 0.00 0.00 56 1018.1
20260503043505 50 0 0.0 0.0 0.00 0.00 0.00 56 1018.2
20260503043005 50 0 0.0 0.0 0.00 0.00 0.00 55 1018.2
20260503042505 50 0 0.0 0.0 0.00 0.00 0.00 56 1018.3
20260503041505 50 0 0.0 0.0 0.00 0.00 0.00 55 1018.1
20260503041006 50 0 0.0 0.0 0.00 0.00 0.00 55 1018.2
20260503040505 50 0 0.0 0.0 0.00 0.00 0.00 54 1018.2
20260503040006 51 0 0.0 0.0 0.00 0.00 0.00 54 1018.1
20260503035505 51 0 0.0 0.0 0.00 0.00 0.00 53 1018.1
20260503034505 51 0 0.0 0.0 0.00 0.00 0.00 52 1018.1
20260503033505 51 265 0.0 1.0 0.00 0.00 0.00 52 1018.0
20260503033006 52 265 0.0 1.0 0.00 0.00 0.00 51 1018.1
20260503032505 52 0 0.0 0.0 0.00 0.00 0.00 51 1018.1
20260503031504 52 265 1.0 4.0 0.00 0.00 0.00 51 1018.0
20260503031005 52 265 1.0 6.0 0.00 0.00 0.00 51 1017.9
20260503030005 52 267 1.0 5.0 0.00 0.00 0.00 50 1017.9
20260503025005 53 267 1.0 5.0 0.00 0.00 0.00 50 1017.8
20260503024005 53 267 1.0 5.0 0.00 0.00 0.00 49 1017.8
20260503023504 53 267 1.0 4.0 0.00 0.00 0.00 49 1017.7
20260503023005 53 270 1.0 6.0 0.00 0.00 0.00 49 1017.6
20260503022504 53 268 1.0 8.0 0.00 0.00 0.00 48 1017.6
20260503022005 53 270 1.0 8.0 0.00 0.00 0.00 48 1017.5
20260503021504 53 275 1.0 6.0 0.00 0.00 0.00 48 1017.5
20260503021005 54 285 1.0 7.0 0.00 0.00 0.00 49 1017.5
20260503020005 54 311 0.0 7.0 0.00 0.00 0.00 49 1017.2
20260503015505 54 326 0.0 7.0 0.00 0.00 0.00 48 1017.0
20260503015005 54 338 1.0 7.0 0.00 0.00 0.00 48 1017.1
20260503014505 54 332 1.0 7.0 0.00 0.00 0.00 47 1017.0
20260503014005 54 353 1.0 6.0 0.00 0.00 0.00 48 1016.9
20260503013505 54 7 2.0 8.0 0.00 0.00 0.00 48 1016.9
20260503013005 54 353 2.0 8.0 0.00 0.00 0.00 48 1016.8
20260503012005 55 351 0.0 8.0 0.00 0.00 0.00 49 1016.6
20260503011505 55 0 0.0 0.0 0.00 0.00 0.00 50 1016.5
20260503011005 55 0 0.0 0.0 0.00 0.00 0.00 52 1016.4
20260503010505 55 0 0.0 0.0 0.00 0.00 0.00 51 1016.4
20260503010005 55 0 0.0 0.0 0.00 0.00 0.00 51 1016.3
20260503005505 55 0 0.0 0.0 0.00 0.00 0.00 51 1016.2
20260503005005 55 0 0.0 0.0 0.00 0.00 0.00 50 1016.1
20260503004505 56 0 0.0 0.0 0.00 0.00 0.00 50 1016.0
20260503004005 56 0 0.0 0.0 0.00 0.00 0.00 50 1015.9
20260503003505 56 0 0.0 0.0 0.00 0.00 0.00 50 1016.0
20260503003005 56 0 0.0 0.0 0.00 0.00 0.00 49 1015.9
20260503002505 56 0 0.0 0.0 0.00 0.00 0.00 49 1015.9
20260503002005 56 0 0.0 0.0 0.00 0.00 0.00 49 1015.7
20260503000504 56 264 1.0 6.0 0.00 0.00 0.00 49 1015.5
20260503000005 56 265 0.0 3.0 0.00 0.00 0.00 49 1015.5
20260502235504 56 265 2.0 8.0 0.00 0.00 0.00 50 1015.5
20260502235005 56 265 2.0 8.0 0.00 0.00 0.00 49 1015.5
20260502234504 56 265 0.0 8.0 0.00 0.00 0.00 49 1015.4
20260502234005 56 265 0.0 2.0 0.00 0.00 0.00 49 1015.4
20260502233504 56 0 0.0 0.0 0.00 0.00 0.00 48 1015.4
20260502233005 56 0 0.0 0.0 0.00 0.00 0.00 49 1015.3
20260502232505 56 0 0.0 0.0 0.00 0.00 0.00 49 1015.4
20260502232005 56 0 0.0 0.0 0.00 0.00 0.00 49 1015.4